Tracking 21074 objects as of 11-Aug-2020
HD Live streaming from Space Station
objects crossing your sky now
Track the most recent launched group of Starlink satellites

FENGYUN 1C DEB

Track FENGYUN 1C DEB now!
10-day predictions


NORAD ID: 37069
Int'l Code: 1999-025EFD
Perigee: 817.2 km
Apogee: 1,505.0 km
Inclination: 95.9 °
Period: 108.4 minutes
Semi major axis: 7532 km
RCS: 0.0144 m2 (small)
Launch date: May 10, 1999
Source: People's Republic of China (PRC)
Launch site: Taiyaun Space Center, China (TSC)

Note: This is SATELLITE DEBRIS
aabbcc
Your satellite tracking list
Your tracking list is empty




NASA's NSSDC Master Catalog

Two Line Element Set (TLE):
1 37069U 99025EFD 20222.44063117 -.00000438  00000-0 -52900-3 0  9990
2 37069  95.8502 280.6004 0456593  56.0235 308.3419 13.28100255617402
Source of the keplerian elements: AFSPC